Weather History for Toronto, ON

Change the Weather History Date:

Wednesday, May 1, 2013

  Actual Average Record
Temperature  
Mean Temperature 56 °F -  
Max Temperature 62 °F 61 °F 68 °F (2003)
Min Temperature 50 °F 46 °F 37 °F (2002)
Degree Days  
Heating Degree Days 9    
Growing Degree Days 6 (Base 50)    
Moisture  
Dew Point 46 °F    
Average Humidity 70    
Maximum Humidity 88    
Minimum Humidity 34    
Precipitation  
Precipitation 0.00 in 0.09 in - ()
Sea Level Pressure  
Sea Level Pressure 30.29 in    
Wind  
Wind Speed 7 mph ()    
Max Wind Speed 15 mph    
Max Gust Speed -    
Visibility 9.1 miles    
Events      
Averages and records for this station are not official NWS values.
T = Trace of Precipitation, MM = Missing Value Source: Averaged Metar Reports

Daily Weather History Graph

Daily Weather History Graph

Search for Another Location

Airport:

Trip Planner

Search our weather history database for the weather conditions in past years. The results will help you decide how hot, cold, wet, or windy it might be!

Date:

Astronomy

May. 01, 2013 Rise Set
Actual Time 6:09 AM EDT 8:20 PM EDT
Civil Twilight 5:38 AM EDT 8:51 PM EDT
Nautical Twilight 4:59 AM EDT 9:30 PM EDT
Astronomical Twilight 4:16 AM EDT 10:13 PM EDT
Moon 1:29 AM EDT (5/1) 11:46 AM EDT (5/1)
Length of Visible Light 15h 13m
Length of Day
14h 10m
Waning Gibbous, 59% of the Moon is Illuminated
May 1
Waning Gibbous
May 2
Last Quarter
May 9
New
May 18
First Quarter
May 25
Full

Hourly Weather History & Observations

Time (EDT) Temp. Dew Point Humidity Pressure Visibility Wind Dir Wind Speed Gust Speed Precip Events Conditions
12:00 AM 53.6 °F 48.2 °F 82% 30.18 in 9.0 mi East 4.6 mph - N/A   Overcast
1:00 AM 51.8 °F 48.2 °F 88% 30.20 in 9.0 mi East 4.6 mph - N/A   Overcast
2:00 AM 55 °F 48 °F 71% 30.21 in 10 mi SE 2.3 mph - -  
2:00 AM 55.4 °F 48.2 °F 77% 30.21 in 9.0 mi Variable 2.3 mph - N/A   Clear
3:00 AM 55.4 °F 48.2 °F 77% 30.22 in 9.0 mi Variable 2.3 mph - N/A   Overcast
4:00 AM 51.8 °F 48.2 °F 88% 30.22 in 9.0 mi East 5.8 mph - N/A   Overcast
5:00 AM 51.8 °F 48.2 °F 88% 30.24 in 9.0 mi East 11.5 mph - N/A   Overcast
6:00 AM 51.8 °F 48.2 °F 88% 30.27 in 9.0 mi East 10.4 mph - N/A   Overcast
7:00 AM 51.8 °F 48.2 °F 88% 30.29 in 9.0 mi East 9.2 mph - N/A   Mostly Cloudy
8:00 AM 52 °F 47 °F 78% 30.32 in 10 mi East 11.5 mph - -  
8:00 AM 51.8 °F 46.4 °F 82% 30.31 in 9.0 mi East 12.7 mph - N/A   Scattered Clouds
9:00 AM 53.6 °F 48.2 °F 82% 30.32 in 9.0 mi ENE 10.4 mph - N/A   Clear
10:00 AM 55.4 °F 48.2 °F 77% 30.33 in 9.0 mi East 9.2 mph - N/A   Clear
11:00 AM 59.0 °F 50.0 °F 72% 30.32 in 9.0 mi ENE 5.8 mph - N/A   Clear
12:00 PM 57.2 °F 50.0 °F 77% 30.32 in 9.0 mi ENE 10.4 mph - N/A   Clear
1:00 PM 59.0 °F 50.0 °F 72% 30.32 in 9.0 mi ENE 9.2 mph - N/A   Clear
2:00 PM 59 °F 50 °F 64% 30.32 in 10 mi East 11.5 mph - -  
2:00 PM 59.0 °F 50.0 °F 72% 30.32 in 9.0 mi East 11.5 mph - N/A   Clear
3:00 PM 59.0 °F 50.0 °F 72% 30.31 in 9.0 mi East 12.7 mph - N/A   Clear
5:00 PM 59.0 °F 48.2 °F 67% 30.30 in 9.0 mi East 13.8 mph - N/A   Clear
6:00 PM 60.8 °F 48.2 °F 63% 30.31 in 9.0 mi ENE 15.0 mph - N/A   Clear
7:00 PM 60.8 °F 46.4 °F 59% 30.31 in 9.0 mi East 11.5 mph - N/A   Clear
8:00 PM 60 °F 39 °F 34% 30.32 in 10 mi ENE 15.0 mph - -  
8:00 PM 60.8 °F 39.2 °F 45% 30.31 in 9.0 mi ENE 15.0 mph - N/A   Clear
9:00 PM 60.8 °F 35.6 °F 39% 30.32 in 9.0 mi ENE 11.5 mph - N/A   Clear
10:00 PM 60.8 °F 35.6 °F 39% 30.33 in 9.0 mi ENE 13.8 mph - N/A   Clear
11:00 PM 59.0 °F 35.6 °F 42% 30.32 in 9.0 mi East 12.7 mph - N/A   Clear